Location: Aspen Spring
(34.7218°N, 106.3853°W)
Time: 20:17:25
(UTC+00:00)

Daily predictions for brighter satellites

Satellite Brightness Start Highest point End
(mag) Time Altitude Azimuth Time Altitude Azimuth Time Altitude Azimuth
USA 234 3.3 12:00:12 10° SE 12:06:45 86° SW 12:13:20 10° NW
ALOS 2.5 12:02:06 10° NNE 12:06:47 77° ESE 12:11:27 10° S
SL-16 R/B 3.3 12:02:56 10° NW 12:07:05 21° W 12:11:13 10° SSW
Aureole 3 Rocket 2.8 12:09:38 10° N 12:13:43 78° E 12:16:55 10° S
Lacrosse 5 3.7 12:12:00 10° S 12:16:25 31° ESE 12:20:51 10° ENE
Cosmos 1844 Rocket 4.1 12:11:19 10° S 12:16:33 41° ESE 12:21:50 10° NE
CZ-2C R/B 3.6 12:15:09 10° NNW 12:18:32 21° WNW 12:21:55 10° WSW
